Weather Service Report


487 
ASUS45 KREV 230810
RWRNV 
NEVADA REGIONAL WEATHER ROUNDUP
NATIONAL WEATHER SERVICE RENO NV
100 AM PDT MON OCT 23 2017

NOTE: "FAIR" INDICATES FEW OR NO CLOUDS BELOW 12,000 FEET WITH NO
SIGNIFICANT WEATHER AND/OR OBSTRUCTIONS TO VISIBILITY.

NVZ001-003-004-230900-
WESTERN NEVADA
  
CITY           SKY/WX    TMP DP  RH WIND       PRES   REMARKS
RENO           CLEAR     49  35  58 CALM      30.52R                  
CARSON CITY    FAIR      45  27  49 CALM      30.53R                  
MINDEN         FAIR      37  27  65 CALM      30.53R                  
SLIDE MTN        N/A     46  32  57 NE10        N/A                   
FALLON         NOT AVBL                                               
LOVELOCK       CLEAR     53  35  50 N5        30.49R                  
HAWTHORNE      CLEAR     52  21  30 W7        30.49S                  
$$

NVZ002-CAZ072-073-230900-
NORTHERN AND CENTRAL SIERRA
  
CITY           SKY/WX    TMP DP  RH WIND       PRES   REMARKS
S. LAKE TAHOE  CLEAR     34  29  82 CALM      30.57F                  
TRUCKEE        CLEAR     34  32  93 CALM      30.57F                  
SQUAW VLY 8000   N/A     46  27  46 NE3         N/A                   
BLUE CANYON    CLEAR     63  31  30 NE8G16    30.46F                  
MAMMOTH LAKES  FAIR      41  13  31 NW3       30.62S                  
BRIDGEPORT     FAIR      32  19  58 CALM      30.60S                  
$$

NVZ030-031-036-230900-
NORTHERN NEVADA
  
CITY           SKY/WX    TMP DP  RH WIND       PRES   REMARKS
ELKO           CLEAR     39  29  67 CALM      30.50S                  
WINNEMUCCA     CLEAR     39  31  72 SE7       30.49S                  
WENDOVER       PTCLDY    58  33  39 W6        30.43R                  
$$

NVZ035-037-230900-
CENTRAL NEVADA
  
CITY           SKY/WX    TMP DP  RH WIND       PRES   REMARKS
ELY            CLEAR     34  14  43 CALM      30.54R                  
EUREKA           N/A     34  16  47 CALM      30.55R                  
$$

NVZ013-014-230900-
SOUTH CENTRAL NEVADA
  
CITY           SKY/WX    TMP DP  RH WIND       PRES   REMARKS
TONOPAH        CLEAR     48  13  24 NE9       30.51R                  
$$

NVZ017-020-022-230900-
SOUTHERN NEVADA
  
CITY           SKY/WX    TMP DP  RH WIND       PRES   REMARKS
LAS VEGAS      CLEAR     66  30  26 NW5       30.26R                  
N. LAS VEGAS   CLEAR     66  23  19 N7        30.25S                  
NELLIS AFB     CLEAR     59  25  27 NW3       30.24S                  
HENDERSON      CLEAR     60  27  28 S7        30.29R                  
MERCURY        CLEAR     56  24  29 VRB3      30.33S                  
$$
  

Return to Home page


Western Regional Climate Center, wrcc@dri.edu